ICT,Max TemperatureF,Mean TemperatureF,Min TemperatureF,Max Dew PointF,MeanDew PointF,Min DewpointF,Max Humidity, Mean Humidity, Min Humidity, Max Sea Level PressureIn, Mean Sea Level PressureIn, Min Sea Level PressureIn, Max VisibilityMiles, Mean VisibilityMiles, Min VisibilityMiles, Max Wind SpeedMPH, Mean Wind SpeedMPH, Max Gust SpeedMPH,PrecipitationIn, CloudCover, Events, WindDirDegrees
2013-4-1,93,88,82,79,77,75,84,72,59,29.86,29.80,29.74,6,6,6,12,7,,0.00,4,,203
2013-4-2,93,88,82,77,77,75,84,72,59,29.86,29.79,29.74,6,6,6,12,5,,0.00,6,,219
2013-4-3,93,88,84,79,77,77,84,72,59,29.80,29.74,29.68,6,6,6,12,7,,0.00,6,Thunderstorm,223
2013-4-4,93,90,86,79,78,77,79,72,63,29.77,29.70,29.65,6,5,4,14,9,,0.00,6,,222
2013-4-5,91,86,82,79,75,73,79,68,55,29.77,29.68,29.62,4,3,2,12,7,,0.00,6,,218
2013-4-6,98,89,80,77,72,64,84,62,34,29.77,29.67,29.59,2,2,1,12,6,,0.00,6,,253
2013-4-7,100,88,77,77,68,48,94,59,17,29.74,29.66,29.59,2,2,1,9,2,,0.00,5,,309
2013-4-8,96,86,75,75,69,59,89,64,28,29.80,29.72,29.65,2,1,1,7,2,,0.00,6,,6
2013-4-9,93,84,75,77,71,57,83,66,30,29.83,29.75,29.68,2,2,1,12,3,,0.00,5,,222
2013-4-10,89,83,77,79,76,73,89,73,62,29.83,29.77,29.68,2,1,1,9,5,,0.00,5,,188
2013-4-11,89,86,82,79,75,73,84,72,59,29.86,29.79,29.74,4,3,2,12,7,,0.00,6,Thunderstorm,204
2013-4-12,93,86,80,77,76,73,84,76,52,29.86,29.80,29.74,5,4,3,9,4,,0.00,6,Rain-Thunderstorm,350
2013-4-13,93,84,75,77,73,68,100,74,46,29.92,29.82,29.74,6,4,1,17,5,,0.00,6,Rain-Thunderstorm,108
2013-4-14,89,84,78,77,75,73,89,76,62,29.92,29.83,29.74,6,5,3,14,9,,0.00,6,Rain,194
2013-4-15,84,81,78,77,75,73,89,77,70,29.83,29.79,29.71,6,6,4,9,4,,0.00,6,Rain-Thunderstorm,190
2013-4-16,86,82,77,77,75,72,89,77,66,29.80,29.74,29.68,6,6,3,9,5,,0.00,6,Rain-Thunderstorm,192
2013-4-17,80,78,75,75,74,72,94,85,74,29.80,29.72,29.68,6,4,2,7,3,,0.00,6,Rain-Thunderstorm,113
2013-4-18,95,86,77,79,73,64,94,71,38,29.77,29.71,29.65,6,5,4,9,4,,0.00,6,,322
2013-4-19,95,86,78,77,74,64,89,69,36,29.77,29.70,29.65,6,4,3,9,3,,0.00,4,,233
2013-4-20,91,86,80,79,77,75,89,72,59,29.80,29.73,29.68,4,4,3,9,6,,0.00,5,,216
2013-4-21,91,86,82,79,77,75,84,73,63,29.86,29.77,29.68,4,4,4,9,6,,0.00,4,Rain,214
2013-4-22,102,93,84,79,76,73,84,70,42,29.86,29.80,29.71,4,4,2,12,5,,0.00,5,,221
2013-4-23,89,84,78,79,76,72,79,73,66,29.86,29.82,29.77,4,4,3,9,4,,0.00,6,Thunderstorm,216
2013-4-24,87,82,78,79,76,73,89,78,66,29.92,29.83,29.74,6,5,2,9,3,,0.00,6,Rain-Thunderstorm,219
2013-4-25,91,84,78,77,76,75,89,77,59,29.89,29.82,29.74,6,6,5,9,3,,0.00,6,,175
2013-4-26,91,84,78,79,77,75,94,75,63,29.89,29.81,29.74,6,6,6,12,3,,0.00,6,,218
2013-4-27,93,86,80,79,77,75,89,73,59,29.86,29.79,29.71,6,6,6,9,3,,0.00,5,,218
2013-4-28,91,86,80,79,77,75,89,74,59,29.80,29.75,29.71,6,6,4,12,5,,0.00,5,Rain-Thunderstorm,220
2013-4-29,93,88,84,79,77,75,79,68,59,29.83,29.77,29.71,6,6,5,12,7,,0.00,6,,216
2013-4-30,93,88,82,77,76,75,84,68,56,29.83,29.78,29.53,6,6,5,74,18,,0.00,4,,221